Theta_e
276 275 275 275 274 274 272 272 272 272 272 272 272 272 273 273 273 273 273 273 274 275 274 275 277 279 283 287 295 296 297 299 299 298 300 301 302 322 323 322 323 322 321
275 274 275 274 273 271 271 271 271 271 271 271 271 271 271 271 271 272 272 273 273 273 274 275 276 280 283 285 294 295 296 298 299 299 301 302 302 319 319 322 319 320 319
274 274 274 272 271 270 270 270 270 269 269 269 269 269 269 269 270 270 271 271 272 272 273 273 274 278 282 285 292 294 295 297 298 299 299 300 301 318 319 317 319 318 317
274 272 271 270 269 269 269 269 268 268 267 267 267 267 267 268 268 269 270 271 272 272 273 274 274 277 280 284 286 292 293 294 294 298 297 300 301 316 318 317 316 316 315
272 270 270 269 268 268 267 267 267 266 266 266 266 265 265 266 267 268 270 271 272 272 272 273 274 277 279 282 285 290 292 292 293 294 296 296 306 317 317 316 315 315 314
270 269 268 267 267 266 266 266 265 265 264 264 264 265 265 266 268 270 272 273 273 274 275 276 276 276 280 282 285 288 291 292 291 292 293 296 305 317 316 315 314 312 310
269 268 266 266 266 265 265 264 263 263 263 264 264 264 265 266 267 270 272 274 275 275 275 275 276 277 279 283 285 288 290 293 291 290 292 293 312 316 315 313 312 311 311
268 266 266 265 265 265 264 263 262 262 263 263 263 264 265 265 267 270 272 274 275 276 276 276 276 277 279 282 285 288 289 290 290 290 291 292 294 316 314 314 313 312 312
266 265 265 265 265 264 263 262 262 262 262 262 264 264 264 265 267 270 273 275 276 277 278 276 276 277 278 281 284 286 288 289 289 290 291 293 297 313 314 313 310 309 308
264 264 265 266 265 263 263 262 262 261 262 264 264 264 265 266 268 271 273 275 277 277 278 277 277 277 278 282 285 286 287 288 289 290 291 301 310 312 313 312 310 308 308
264 265 266 265 264 264 262 261 261 261 262 263 264 266 267 268 268 270 273 274 274 275 277 280 278 278 281 282 285 287 287 289 290 290 291 304 308 310 309 309 310 309 308
264 265 266 266 265 263 261 261 261 262 263 264 266 267 267 267 268 270 271 273 274 276 277 279 279 280 282 285 286 288 289 289 290 290 291 303 307 308 308 308 309 309 309
264 265 265 264 264 262 261 261 261 262 264 265 267 267 267 268 269 269 270 273 274 275 276 277 279 280 283 285 287 289 291 291 291 291 292 303 307 307 308 308 309 309 308
263 264 263 263 263 262 261 261 261 263 264 268 267 267 267 269 268 270 271 272 272 273 273 274 275 278 281 284 287 290 291 291 291 291 293 303 306 306 306 306 307 307 304
262 262 262 261 260 261 261 260 263 264 267 268 267 267 267 269 269 271 271 271 271 274 275 277 277 279 281 287 289 290 290 291 291 293 296 302 304 304 304 305 306 304 303
261 260 260 259 259 259 259 260 262 264 265 266 267 268 268 268 269 269 269 269 270 270 272 275 278 278 280 287 290 291 291 291 292 295 301 302 302 303 303 303 304 304 303
261 260 259 258 258 257 257 258 258 261 262 263 263 266 268 267 267 268 267 266 267 265 266 268 269 270 272 274 277 283 291 292 295 298 301 302 302 303 301 302 302 303 303
261 260 258 258 257 257 257 257 257 257 257 259 260 263 266 265 265 265 265 263 263 264 264 267 267 268 270 271 272 274 276 285 297 300 300 301 301 301 300 301 301 302 303
261 260 259 259 258 257 257 257 256 256 257 257 258 260 264 262 263 263 262 261 262 263 263 266 267 268 268 270 270 271 272 275 295 300 300 300 300 300 300 300 301 302 301
261 260 259 259 258 258 257 256 256 255 255 256 257 257 264 260 260 260 260 260 261 263 264 265 267 267 268 269 269 269 271 274 291 300 299 299 299 299 300 299 300 300 300
260 260 259 258 258 257 256 256 255 255 254 255 256 257 264 258 259 259 260 260 260 262 263 264 267 267 268 269 269 268 269 271 274 289 298 298 298 298 299 299 299 300 300
259 259 259 258 258 257 257 256 255 255 255 254 255 256 259 258 258 258 259 260 260 261 262 264 265 267 267 268 269 269 268 268 270 273 282 297 297 298 298 298 299 299 299
259 258 258 257 257 257 257 256 256 255 255 255 255 255 255 256 257 257 258 259 260 261 262 263 264 267 267 267 268 269 268 267 268 271 275 285 297 297 297 297 297 298 298
259 258 258 257 257 257 256 256 256 255 255 255 255 255 255 256 256 258 258 259 260 261 262 263 264 265 267 267 267 269 269 267 268 271 276 285 296 296 297 297 297 297 297
258 258 257 257 257 256 256 256 255 255 255 255 255 255 256 256 257 258 260 260 261 261 263 263 264 264 267 267 267 267 270 267 267 270 273 276 281 290 294 295 295 296 296
257 257 257 257 256 256 256 256 255 255 255 255 255 255 255 256 257 258 259 260 261 263 264 264 265 265 266 267 267 267 269 269 267 267 268 269 271 273 276 281 288 291 292
Wind_Speed
11 15 18 21 24 26 28 29 29 30 33 33 34 35 34 33 31 32 33 34 35 33 33 35 36 36 34 37 27 25 26 22 12 22 37 39 36 45 49 46 51 53 54
12 15 19 21 23 26 27 28 29 30 31 32 33 36 36 35 33 33 34 33 33 33 33 32 33 32 33 33 27 25 24 27 23 17 25 30 35 39 49 49 52 52 59
12 15 19 22 24 24 27 28 29 30 30 32 32 34 36 35 34 33 34 35 34 35 34 35 33 33 34 31 28 21 23 25 30 24 22 28 41 41 39 41 49 51 55
11 15 18 21 22 25 27 27 27 28 31 31 31 34 34 36 35 34 34 34 33 33 34 33 34 36 35 31 26 22 22 22 24 19 19 28 39 35 43 40 38 41 46
12 16 19 20 22 23 24 25 25 26 28 31 33 33 33 34 33 32 32 32 33 34 34 34 34 36 39 40 31 22 23 19 18 20 17 19 28 32 31 35 38 42 47
12 14 18 19 20 22 22 26 26 26 27 30 31 32 33 33 35 35 35 34 34 34 33 32 33 35 39 41 42 38 28 23 21 17 18 13 35 37 38 43 39 30 13
11 16 19 22 24 24 26 27 27 28 28 29 31 32 33 35 36 35 34 34 34 33 33 34 33 33 35 32 33 35 34 33 32 25 27 37 26 45 43 43 43 44 35
12 16 20 20 25 25 27 26 27 27 28 30 32 32 33 35 36 36 34 34 34 36 36 37 34 35 34 32 26 27 31 30 30 31 34 40 47 49 53 57 56 49 41
11 14 17 22 28 28 31 27 28 29 30 30 29 33 35 38 36 35 33 32 30 37 37 35 32 35 36 35 33 29 29 31 30 37 46 55 61 54 55 49 41 33 17
9 14 18 21 25 27 28 30 28 27 29 31 32 30 34 38 36 34 33 29 29 29 27 31 32 35 37 32 33 29 26 29 27 37 44 40 51 56 61 60 54 26 20
8 13 17 19 22 24 27 30 27 28 28 30 30 30 31 32 35 34 31 31 30 30 27 29 25 28 31 36 35 31 29 23 29 34 36 30 41 48 49 55 64 59 43
9 12 15 17 20 23 26 29 25 26 27 29 30 30 30 34 31 33 35 30 31 29 29 24 22 25 27 30 30 30 34 33 33 29 24 24 34 39 46 53 57 55 64
8 12 15 18 21 22 23 27 23 22 24 27 27 28 33 34 34 34 35 33 32 31 27 28 28 28 28 32 32 33 32 29 23 18 18 22 33 40 46 49 50 53 50
8 11 14 17 21 22 21 18 21 22 24 26 27 27 35 33 35 33 34 34 32 30 30 28 27 27 29 28 27 22 20 21 19 20 23 26 32 35 33 40 38 41 32
8 9 13 13 16 19 21 18 18 20 25 27 28 30 31 32 36 41 41 37 30 27 32 23 21 18 16 17 20 23 19 19 20 23 25 23 27 31 31 37 37 33 27
9 10 12 13 16 13 15 24 18 19 23 23 27 32 35 37 40 39 39 31 27 29 18 9 9 12 11 12 12 14 17 19 22 22 20 26 26 29 29 30 34 33 26
10 8 10 11 13 14 15 14 16 31 24 24 27 33 38 37 38 39 38 30 30 31 23 21 17 17 18 19 17 15 12 18 22 21 20 24 27 27 29 28 28 30 26
9 9 8 9 12 14 16 17 16 18 20 29 31 32 39 38 37 38 39 32 33 36 28 23 22 23 22 21 20 18 18 22 20 20 21 25 28 30 27 27 28 27 25
8 7 6 7 10 12 17 19 20 19 19 22 29 36 38 36 34 35 38 32 28 28 31 28 28 27 26 25 23 22 20 21 20 20 23 24 27 29 28 29 30 33 29
8 7 5 7 11 15 19 21 21 20 20 21 23 29 34 34 36 35 35 33 31 31 32 30 32 31 30 29 28 25 24 23 18 22 22 26 27 30 28 28 30 28 27
8 6 5 7 10 14 17 19 20 21 19 20 21 26 31 26 27 30 32 33 32 32 34 33 34 35 35 32 31 30 26 24 24 10 23 27 28 24 28 31 31 31 30
9 8 6 8 10 14 17 17 19 21 21 21 25 27 27 28 28 29 31 34 35 33 33 35 35 37 37 37 34 33 29 26 25 23 13 22 26 28 25 27 28 29 29
9 8 7 8 10 12 15 17 19 21 22 23 25 26 27 26 27 30 31 34 36 36 37 37 39 40 44 41 39 35 32 30 27 22 19 11 24 26 26 23 24 24 26
10 8 7 8 10 12 14 16 17 19 21 22 25 26 27 27 28 32 34 37 37 38 38 36 39 40 46 47 46 43 41 37 30 22 15 8 19 25 26 26 25 27 26
11 9 8 9 10 10 11 14 16 18 19 21 23 25 26 27 29 31 35 37 39 38 41 40 41 42 42 51 52 52 47 46 45 34 27 21 18 12 12 17 19 21 23
11 10 8 7 7 7 10 12 13 15 17 19 21 22 23 25 26 29 32 34 37 39 41 41 45 46 40 45 50 52 49 49 48 46 38 35 33 28 20 14 12 12 17
Wind_Direction
324 323 329 333 330 325 318 315 310 304 301 295 293 291 289 287 286 281 274 274 272 270 271 270 268 269 269 280 231 236 238 244 241 257 249 250 279 186 180 183 163 165 168
312 324 331 330 329 324 317 313 310 302 298 295 295 295 293 289 286 281 278 274 272 271 271 270 272 272 268 277 247 236 236 240 248 254 254 258 254 192 188 178 172 169 169
314 330 330 331 331 319 314 312 309 301 298 298 298 294 293 290 287 282 277 274 271 270 270 270 269 268 264 264 263 241 246 245 243 247 251 264 250 191 186 161 168 169 170
325 333 329 332 323 316 315 310 305 306 305 303 298 294 293 291 287 285 282 279 275 271 270 266 268 263 262 264 273 237 251 254 266 238 251 257 243 214 178 166 158 163 160
334 334 337 324 319 317 313 310 314 314 309 303 301 297 296 292 288 286 282 277 272 269 267 267 265 266 260 259 261 270 224 240 253 262 255 278 244 198 173 164 159 158 162
338 340 326 322 321 321 319 325 322 318 312 308 304 302 301 295 292 290 286 280 277 275 274 270 267 266 263 259 258 259 252 223 237 246 260 259 253 174 168 161 156 151 149
337 331 335 330 329 330 331 329 323 318 315 312 308 307 303 299 298 294 289 282 275 269 269 270 269 264 266 257 256 260 270 240 242 254 258 250 226 171 167 160 160 159 167
335 335 338 335 334 332 331 331 322 319 316 313 309 309 310 304 303 299 295 287 278 273 260 259 261 264 261 262 260 259 255 254 253 264 256 261 264 180 169 170 168 162 159
341 337 335 338 339 336 334 329 323 317 314 310 311 314 312 306 308 306 302 292 289 287 259 252 251 257 258 256 257 261 268 270 277 279 280 273 262 184 174 162 157 154 159
341 341 344 341 338 334 333 326 317 312 311 312 311 313 310 303 309 312 308 300 296 310 278 258 251 250 253 252 248 249 252 262 277 282 282 274 198 171 175 168 162 161 162
348 349 347 342 338 337 331 322 319 317 315 311 314 321 320 314 313 316 313 315 307 300 291 291 250 251 254 243 247 246 253 267 264 270 276 224 176 172 170 166 168 167 165
2 359 351 346 346 339 333 326 325 319 318 320 325 329 325 319 315 317 316 312 307 297 294 304 265 259 261 253 251 250 250 246 255 264 277 228 172 177 169 169 171 174 176
12 11 359 353 350 344 334 322 325 325 325 325 332 330 327 323 326 319 314 316 314 305 299 293 290 290 295 259 256 258 240 234 240 251 264 216 173 176 172 166 171 177 177
30 21 6 355 350 345 335 329 325 329 329 334 336 332 327 329 326 322 326 321 316 308 300 293 289 286 284 275 256 254 229 238 240 247 260 201 170 170 167 165 173 169 164
51 32 7 359 348 340 341 334 334 335 339 339 338 334 326 332 329 335 333 330 319 307 307 283 280 274 268 253 246 237 232 239 241 240 247 185 166 168 168 168 171 161 165
64 33 10 356 351 337 329 336 358 354 351 348 347 348 338 340 341 345 346 348 350 347 352 325 317 334 322 302 234 233 236 236 239 244 208 178 167 170 163 168 167 170 163
70 45 16 359 353 347 337 335 339 354 359 357 353 355 355 352 355 357 1 3 10 15 16 7 1 350 342 335 327 320 245 236 244 233 186 181 170 168 165 169 169 170 169
78 60 31 7 359 360 3 357 350 347 342 341 350 357 2 2 4 6 10 10 12 13 8 6 358 352 344 337 325 319 310 303 248 215 183 181 174 168 170 173 170 173 169
91 65 41 27 25 20 21 20 14 359 350 342 342 355 1 3 8 13 13 15 6 6 1 359 1 354 345 341 332 326 321 303 257 201 184 180 177 173 174 174 175 177 171
100 88 59 40 37 34 31 26 20 6 358 349 348 343 358 360 4 2 4 4 5 4 2 357 1 358 352 349 345 341 336 327 289 194 184 180 180 180 176 174 177 176 182
117 110 88 64 51 42 36 29 26 18 4 351 345 354 8 2 358 359 359 0 358 359 359 357 2 2 359 355 356 353 347 335 329 303 182 184 180 183 182 178 179 184 180
136 122 102 74 57 51 44 37 30 25 17 5 358 0 3 7 1 359 357 360 358 357 359 2 1 6 4 2 1 360 350 342 336 340 341 189 182 183 180 181 183 181 181
142 129 112 90 71 61 52 45 37 28 19 16 15 3 360 360 0 359 356 358 0 359 1 3 2 7 9 9 7 9 1 347 337 341 328 281 191 185 181 181 183 184 182
153 146 125 96 79 65 55 47 41 33 22 17 17 14 8 4 2 5 4 5 5 6 6 5 5 2 10 12 11 13 11 7 10 9 10 17 194 191 190 189 188 187 187
157 145 132 107 86 69 61 51 40 34 25 19 14 15 13 13 13 13 13 13 12 9 10 8 7 7 9 13 13 15 15 17 25 32 38 52 70 116 167 183 185 186 184
157 147 132 111 89 69 58 51 44 32 23 16 11 11 11 10 12 12 13 12 13 15 16 12 11 14 14 18 17 16 19 23 29 34 39 43 45 45 54 75 127 160 175